Weather History for Hayward, WI

Change the Weather History Date:

Friday, May 16, 2014

  Actual Average Record
Temperature  
Mean Temperature 43 °F -  
Max Temperature 52 °F 81 °F 80 °F (2006)
Min Temperature 35 °F 51 °F 26 °F (2011)
Degree Days  
Heating Degree Days 22    
Moisture  
Dew Point 24 °F    
Average Humidity 50    
Maximum Humidity 85    
Minimum Humidity 26    
Precipitation  
Precipitation 0.00 in - - ()
Sea Level Pressure  
Sea Level Pressure 30.05 in    
Wind  
Wind Speed 2 mph (NNW)    
Max Wind Speed 9 mph    
Max Gust Speed 17 mph    
Visibility 10 miles    
Events      
Averages and records for this station are not official NWS values.
T = Trace of Precipitation, MM = Missing Value Source: NWS Daily Summary

Daily Weather History Graph

Daily Weather History Graph

Search for Another Location

Airport:

Trip Planner

Search our weather history database for the weather conditions in past years. The results will help you decide how hot, cold, wet, or windy it might be!

Date:

Astronomy

May. 16, 2014 Rise Set
Actual Time 5:32 AM CDT 8:32 PM CDT
Civil Twilight 4:57 AM CDT 9:08 PM CDT
Nautical Twilight 4:12 AM CDT 9:53 PM CDT
Astronomical Twilight 3:17 AM CDT 10:48 PM CDT
Moon 10:39 PM CDT (5/16) 7:14 AM CDT (5/16)
Length of Visible Light 16h 10m
Length of Day
15h 00m
Waning Gibbous, 95% of the Moon is Illuminated
May 16
Waning Gibbous
May 21
Last Quarter
May 28
New
Jun 5
First Quarter
Jun 12
Full

Hourly Weather History & Observations

Time (CDT) Temp. Windchill Dew Point Humidity Pressure Visibility Wind Dir Wind Speed Gust Speed Precip Events Conditions
12:53 AM 39.0 °F - 28.0 °F 65% 30.10 in 10.0 mi Calm Calm - N/A   Overcast
1:53 AM 37.0 °F - 30.0 °F 76% 30.09 in 10.0 mi Calm Calm - N/A   Overcast
3:53 AM 37.0 °F - 30.0 °F 76% 30.07 in 10.0 mi Calm Calm - N/A   Overcast
4:53 AM 36.0 °F - 30.9 °F 82% 30.07 in 10.0 mi Calm Calm - N/A   Overcast
5:53 AM 35.1 °F - 30.9 °F 85% 30.07 in 10.0 mi Calm Calm - N/A   Overcast
6:53 AM 37.9 °F - 30.0 °F 73% 30.07 in 10.0 mi Calm Calm - N/A   Overcast
7:53 AM 41.0 °F - 28.9 °F 62% 30.07 in 10.0 mi Calm Calm - N/A   Overcast
8:53 AM 43.0 °F 41.3 °F 27.0 °F 53% 30.06 in 10.0 mi Variable 3.5 mph - N/A   Mostly Cloudy
9:53 AM 48.0 °F - 25.0 °F 41% 30.05 in 10.0 mi North - - N/A   Clear
10:53 AM 46.9 °F - 21.0 °F 36% 30.04 in 10.0 mi Variable 6.9 mph - N/A   Overcast
11:53 AM 48.0 °F - 19.0 °F 32% 30.05 in 10.0 mi NW 8.1 mph - N/A   Overcast
12:53 PM 51.1 °F - 17.1 °F 26% 30.04 in 10.0 mi NNE 9.2 mph 17.3 mph N/A   Scattered Clouds
1:53 PM 51.1 °F - 18.0 °F 27% 30.04 in 10.0 mi Variable 5.8 mph - N/A   Mostly Cloudy
2:53 PM 50.0 °F - 18.0 °F 28% 30.03 in 10.0 mi Variable 4.6 mph - N/A   Overcast
3:53 PM 50.0 °F - 18.0 °F 28% 30.03 in 10.0 mi North 5.8 mph - N/A   Overcast
4:53 PM 50.0 °F - 18.0 °F 28% 30.03 in 10.0 mi Variable 3.5 mph - N/A   Overcast
5:53 PM 51.1 °F - 19.0 °F 28% 30.03 in 10.0 mi NW 8.1 mph - N/A   Mostly Cloudy
6:53 PM 50.0 °F - 19.0 °F 29% 30.03 in 10.0 mi Variable 3.5 mph - N/A   Mostly Cloudy
7:53 PM 46.9 °F - 23.0 °F 39% 30.04 in 10.0 mi Calm Calm - N/A   Mostly Cloudy
8:53 PM 43.0 °F - 26.1 °F 51% 30.04 in 10.0 mi Calm Calm - N/A   Overcast
9:53 PM 42.1 °F - 28.0 °F 58% 30.05 in 10.0 mi Calm Calm - N/A   Overcast
10:53 PM 39.0 °F - 28.0 °F 65% 30.04 in 10.0 mi Calm Calm - N/A   Overcast
11:53 PM 37.0 °F - 28.9 °F 73% 30.04 in 10.0 mi Calm Calm - N/A   Overcast